ATC SCHEDULE

ATC (0): Portugal vACC
No ATC scheduled
Free Web Hosting - Your Website need to be migrated
Banner

Free Web Hosting

Zero cost website hosting with PHP, MySQL, Cpanel & no ads!

Sign Up for FREE! Yes, it’s absolutely free!

  • Feature-rich Cpanel with PHP & MySQL
  • No Ads

Looking for Web Hosting? Check this out!

Free Web Hosting
FREE
  • 1000 MB Disk Space
  • 10000 MB Bandwidth
  • 2 MySQL Databases
  • 5 Email Forwarders
  • 2 Websites
  • Website Builder
  • Free domain hosting
  • Sleeps 1 hour Per Day
  • View all features
Business - Gold Hosting
$11.99
34% off
$7.95/mo
  • Unlimited Number of Websites
  • Unlimited SSD Disk Space
  • Unlimited Bandwidth
  • Unlimited MySQL Databases
  • Unlimited FTP Users
  • Simple Website builder
  • Unlimited Email Accounts
  • Never Sleeps
  • 5X WordPress Optimized Speed
  • Free Domain Name
  • Daily Backups
  • Deluxe Live Support
  • 2X Processing Power & Memory
  • Free SSL Certificate to secure customer data & increase SEO rankings.
  • View all features

As a cherry on the cake, you also get these at Premium 000Webhost:

Please share & Like this page! This will motivate us to develop more & better free features!

Hosted websites for 16,913,555 users all over the world!

  • php
  • my sql
  • intel
  • cloudlinux
  • nginx
  • cloudflare
  • wordpress

TRAFFIC SCHEDULE

No Flights scheduled

LIVE ATC


Banner
Santa Maria Control: 132.150
Santa Maria Approach: 119.100
P. Delgada Approach: 119.400
Lajes Approach: 135.000
Lajes Tower: 122.100

PORTUGAL VACC LOGIN

JOIN PORTUGAL vACC


Banner
Join Portugal vACC as Air Traffic Controller and be part of our team


Banner
Join Portugal vACC as a pilot

QUICK LINKS


Banner
Banner
Banner

GET SOCIAL

Welcome

Welcome Santa Maria FIR here you will find information regarding virtual flying in Santa Maria Oceanic Fir.

Portugal VACC provides Virtual Air Traffic Control to Santa Maria Oceanic on the VATSIM network. All you need to know about virtual flying in Santa Maria Oceanic Fir can be found on this site.

Santa Maria Fir is well known for true real life procedures of Air Traffic Control and for our excellent virtual ATC skills. Our mission is to provide a realistic Air Traffic Control service all over Portuguese air space, and make the virtual pilot's experience to be as real as it gets while they fly in Portuguese air space through the VATSIM network.

 

vACC Chart Center

fireevent

Pilots and controllers are encouraged to access our chart center with chart information for all LPPC main airports. Visit this new tool which is essential for a better experience at our airports.

Briefing Room

fireevent

Briefing Room is a online platform where pilots can plan a flight or create a flight plan. Routes, Charts, Weather information can be found here. Enjoy our Briefing Room

Latest Metars

Santa Maria LPAZ 242200Z 02005KT 340V040 9999 FEW024 SCT036 21/15 Q1016
Ponta Delgada LPPD 242200Z 04005KT 010V090 9999 FEW022 BKN050 20/15 Q1016
Lajes LPLA 242200Z /////KT 9999 FEW023 BKN030 22/19 Q1016
Horta LPHR 242130Z 00000KT 9999 FEW010 22/20 Q1015
Flores LPFL 241800Z 36016KT 9999 FEW006 BKN010 BKN022 22/20 Q1014

News

Welcome to our new website This new version is more intuitive and with new functionalities such as Briefing Room. Hope you enjoy exploring our new site.

Notam

NO NOTAMS (0)
08-29-2012


See All →

Webmaster